Погода в Истмейне

Канада     52°14′37″N   78°30′26″W
темп.,
°C
ветер,
м/с
пор.,
м/с
влажн.,
%
обл.,
%
осадки,
мм/ч
давл.,
гПа
погр.,
м
23 января, сб
сб2301:00−21ссз359488 0.0 1018103
04:00−21ссз2392100 0.0 102147
07:00−21ссз2299100 0.0 102254
10:00−18сз2595100 0.1 1024323
13:00−16зсз4693100 0.1 1024502
16:00−19зсз4797100 0.1 1026233
19:00−21зсз36100100 0.1 1027123
22:00−22зсз3499100 0.0 102879
24 января, вс
вс2401:00−23зсз3599100 0.1 102790
04:00−22зсз3697100 0.0 1027222
07:00−23зсз3498100 0.0 102694
10:00−21зсз349798 0.0 1026195
13:00−19з349499 0.1 1024330
16:00−19зсз3496100 0.1 1024302
19:00−19зсз2297100 0.2 1023137
22:00−18з1197100 0.1 102289
25 января, пн
пн2501:00−18з1297100 0.3 1022108
04:00−18з129799 0.1 102221
07:00−18зсз119899 0.1 102223
10:00−16з119492 0.1 1022168
13:00−15зсз229195 0.2 1022350
16:00−15з2295100 0.1 102265
19:00−17з2297100 0.1 102628
22:00−18зсз019985 0.1 102320
26 января, вт
вт2601:00−19ююз129998 0.1 102620
04:00−19юз2299100 0.1 102520
07:00−17ююз119898 0.1 102420
10:00−15ююз129698 0.1 1025129
13:00−14зюз229298 0.1 1024313
16:00−15з2396100 0.1 102487
19:00−15з239799 0.2 102587
22:00−16з239798 0.1 102666
27 января, ср
ср2701:00−17зюз249796 0.2 102687
04:00−17юз3597100 0.1 1027164
07:00−18юз3597100 0.2 1028208
10:00−19юз4597100 0.1 1029259
13:00−19юз4596100 0.2 1029328
16:00−18юз4695100 0.1 1029421
19:00−20зюз4696100 0.2 1031347
22:00−23юз4697100 0.1 1031241